| time (UTC) | temp C | wind direction | speed KPH | gust KPH | rain 1hr cm | rain 24hr cm | rain mn cm | humidity % | barometer mb |
| 20260505153006 | 20 | 264 | 1.6 | 24.1 | 0.00 | 0.00 | 0.00 | 56 | 1003.8 |
| 20260505151505 | 20 | 215 | 17.7 | 32.2 | 0.00 | 0.00 | 0.00 | 55 | 1003.9 |
| 20260505130110 | 18 | 150 | 8.0 | 22.5 | 0.00 | 0.00 | 0.00 | 62 | 1004.1 |
| 20260505124556 | 18 | 278 | 8.0 | 29.0 | 0.00 | 0.00 | 0.00 | 63 | 1004.3 |
| 20260505123051 | 17 | 89 | 6.4 | 27.4 | 0.00 | 0.00 | 0.00 | 64 | 1004.4 |
| 20260505120023 | 16 | 263 | 6.4 | 19.3 | 0.00 | 0.00 | 0.00 | 66 | 1004.4 |
| 20260505114521 | 16 | 359 | 4.8 | 9.7 | 0.00 | 0.00 | 0.00 | 66 | 1004.5 |
| 20260505113007 | 16 | 201 | 4.8 | 19.3 | 0.00 | 0.00 | 0.00 | 66 | 1004.6 |
| 20260505111601 | 16 | 194 | 3.2 | 9.7 | 0.00 | 0.00 | 0.00 | 67 | 1004.5 |
| 20260505101515 | 15 | 336 | 3.2 | 11.3 | 0.00 | 0.00 | 0.00 | 68 | 1003.6 |
| 20260505100004 | 15 | 271 | 3.2 | 9.7 | 0.00 | 0.00 | 0.00 | 68 | 1003.6 |
| 20260505094503 | 15 | 189 | 3.2 | 11.3 | 0.00 | 0.00 | 0.00 | 68 | 1003.7 |
| 20260505093003 | 15 | 150 | 3.2 | 14.5 | 0.00 | 0.00 | 0.00 | 68 | 1003.5 |
| 20260505091502 | 15 | 245 | 3.2 | 12.9 | 0.00 | 0.00 | 0.00 | 68 | 1003.6 |
| 20260505090002 | 15 | 283 | 3.2 | 16.1 | 0.00 | 0.00 | 0.00 | 70 | 1003.6 |
| 20260505084502 | 15 | 328 | 3.2 | 17.7 | 0.00 | 0.00 | 0.00 | 70 | 1003.6 |
| 20260505083003 | 15 | 326 | 3.2 | 9.7 | 0.00 | 0.00 | 0.00 | 72 | 1003.4 |
| 20260505081623 | 15 | 322 | 3.2 | 8.0 | 0.00 | 0.00 | 0.00 | 74 | 1003.6 |
| 20260505081501 | 14 | 310 | 4.8 | 8.0 | 0.00 | 0.00 | 0.00 | 74 | 1003.6 |
| 20260505080047 | 14 | 293 | 0.0 | 3.2 | 0.00 | 0.00 | 0.00 | 76 | 1003.6 |
| 20260505074541 | 15 | 293 | 1.6 | 4.8 | 0.00 | 0.00 | 0.00 | 73 | 1003.6 |
| 20260505073027 | 16 | 235 | 3.2 | 16.1 | 0.00 | 0.00 | 0.00 | 69 | 1003.9 |
| 20260505071542 | 16 | 302 | 3.2 | 12.9 | 0.00 | 0.00 | 0.00 | 67 | 1003.4 |
| 20260505070004 | 16 | 299 | 6.4 | 22.5 | 0.00 | 0.00 | 0.00 | 66 | 1003.2 |
| 20260505064502 | 16 | 168 | 4.8 | 17.7 | 0.00 | 0.00 | 0.00 | 66 | 1003.4 |
| 20260505063144 | 16 | 237 | 3.2 | 12.9 | 0.00 | 0.00 | 0.00 | 66 | 1003.6 |
| 20260505061542 | 16 | 229 | 4.8 | 19.3 | 0.00 | 0.00 | 0.00 | 67 | 1003.6 |
| 20260505060029 | 15 | 275 | 4.8 | 9.7 | 0.00 | 0.00 | 0.00 | 67 | 1003.8 |
| 20260505054537 | 15 | 296 | 4.8 | 9.7 | 0.00 | 0.00 | 0.00 | 69 | 1004.0 |
| 20260505053029 | 14 | 285 | 1.6 | 11.3 | 0.00 | 0.00 | 0.00 | 71 | 1004.1 |
| 20260505051532 | 13 | 312 | 0.0 | 4.8 | 0.00 | 0.00 | 0.00 | 74 | 1004.2 |
| 20260505041517 | 16 | 249 | 1.6 | 14.5 | 0.00 | 0.00 | 0.00 | 66 | 1004.7 |
| 20260505040105 | 16 | 274 | 3.2 | 12.9 | 0.00 | 0.00 | 0.00 | 65 | 1004.6 |
| 20260505034558 | 16 | 296 | 3.2 | 9.7 | 0.00 | 0.00 | 0.00 | 64 | 1004.7 |
| 20260505033048 | 16 | 293 | 4.8 | 12.9 | 0.00 | 0.00 | 0.00 | 63 | 1004.7 |
| 20260505031545 | 17 | 328 | 3.2 | 11.3 | 0.00 | 0.00 | 0.00 | 63 | 1004.8 |
| 20260505030045 | 17 | 256 | 1.6 | 12.9 | 0.00 | 0.00 | 0.00 | 62 | 1004.9 |
| 20260505024546 | 17 | 213 | 3.2 | 12.9 | 0.00 | 0.00 | 0.00 | 61 | 1004.9 |
| 20260505023050 | 17 | 96 | 1.6 | 9.7 | 0.00 | 0.00 | 0.00 | 60 | 1004.9 |
| 20260505021543 | 17 | 220 | 1.6 | 6.4 | 0.00 | 0.00 | 0.00 | 59 | 1004.9 |
| 20260505020042 | 17 | 237 | 1.6 | 8.0 | 0.00 | 0.00 | 0.00 | 58 | 1005.0 |
| 20260505014542 | 17 | 265 | 1.6 | 8.0 | 0.00 | 0.00 | 0.00 | 57 | 1004.8 |
| 20260505013029 | 17 | 329 | 1.6 | 11.3 | 0.00 | 0.00 | 0.00 | 57 | 1004.7 |
| 20260505011529 | 17 | 4 | 1.6 | 6.4 | 0.00 | 0.00 | 0.00 | 58 | 1004.5 |
| 20260505010029 | 18 | 272 | 0.0 | 6.4 | 0.00 | 0.00 | 0.00 | 54 | 1004.3 |
| 20260505004528 | 18 | 291 | 0.0 | 4.8 | 0.00 | 0.00 | 0.00 | 54 | 1004.2 |
| 20260505003028 | 18 | 285 | 1.6 | 11.3 | 0.00 | 0.00 | 0.00 | 50 | 1004.2 |
| 20260505000028 | 19 | 300 | 4.8 | 12.9 | 0.00 | 0.00 | 0.00 | 49 | 1004.3 |
| 20260504234526 | 19 | 246 | 11.3 | 19.3 | 0.00 | 0.00 | 0.00 | 48 | 1004.0 |
| 20260504233012 | 20 | 226 | 6.4 | 19.3 | 0.00 | 0.00 | 0.00 | 46 | 1004.2 |
| 20260504231608 | 20 | 169 | 3.2 | 12.9 | 0.00 | 0.00 | 0.00 | 46 | 1004.3 |
| 20260504230050 | 20 | 359 | 3.2 | 16.1 | 0.00 | 0.00 | 0.00 | 45 | 1004.1 |
| 20260504224551 | 21 | 195 | 9.7 | 17.7 | 0.00 | 0.00 | 0.00 | 43 | 1004.2 |
| 20260504223032 | 21 | 262 | 8.0 | 29.0 | 0.00 | 0.00 | 0.00 | 41 | 1004.0 |
| 20260504221531 | 21 | 152 | 14.5 | 24.1 | 0.00 | 0.00 | 0.00 | 40 | 1004.1 |
| 20260504220023 | 21 | 183 | 3.2 | 17.7 | 0.00 | 0.00 | 0.00 | 41 | 1004.2 |
| 20260504214518 | 21 | 191 | 8.0 | 24.1 | 0.00 | 0.00 | 0.00 | 39 | 1003.9 |
| 20260504213017 | 21 | 306 | 17.7 | 27.4 | 0.00 | 0.00 | 0.00 | 39 | 1004.1 |
| 20260504211516 | 21 | 272 | 11.3 | 20.9 | 0.00 | 0.00 | 0.00 | 40 | 1004.1 |
| 20260504210015 | 21 | 210 | 8.0 | 25.7 | 0.00 | 0.00 | 0.00 | 38 | 1004.1 |
| 20260504204514 | 21 | 145 | 9.7 | 17.7 | 0.00 | 0.00 | 0.00 | 38 | 1004.3 |
| 20260504203013 | 21 | 253 | 14.5 | 33.8 | 0.00 | 0.00 | 0.00 | 37 | 1004.4 |
| 20260504201511 | 21 | 177 | 8.0 | 27.4 | 0.00 | 0.00 | 0.00 | 35 | 1004.3 |
| 20260504194557 | 21 | 82 | 8.0 | 17.7 | 0.00 | 0.00 | 0.00 | 33 | 1004.9 |
| 20260504193054 | 21 | 266 | 11.3 | 24.1 | 0.00 | 0.00 | 0.00 | 33 | 1005.1 |
| 20260504191556 | 21 | 243 | 11.3 | 25.7 | 0.00 | 0.00 | 0.00 | 32 | 1005.3 |
| 20260504190100 | 21 | 322 | 4.8 | 29.0 | 0.00 | 0.00 | 0.00 | 38 | 1005.5 |
| 20260504184604 | 20 | 318 | 11.3 | 37.0 | 0.00 | 0.00 | 0.00 | 35 | 1005.8 |
| 20260504183051 | 20 | 221 | 11.3 | 30.6 | 0.00 | 0.00 | 0.00 | 39 | 1006.0 |
| 20260504181547 | 20 | 224 | 6.4 | 25.7 | 0.00 | 0.00 | 0.00 | 40 | 1006.0 |
| 20260504180041 | 20 | 166 | 9.7 | 22.5 | 0.00 | 0.00 | 0.00 | 40 | 1006.1 |
| 20260504174539 | 19 | 220 | 9.7 | 24.1 | 0.00 | 0.00 | 0.00 | 39 | 1006.4 |
| 20260504173028 | 19 | 247 | 17.7 | 33.8 | 0.00 | 0.00 | 0.00 | 39 | 1006.4 |
| 20260504171523 | 19 | 241 | 12.9 | 30.6 | 0.00 | 0.00 | 0.00 | 41 | 1006.7 |